This is the latest recevied weather packets stored in our database for station/object WR9A-13. If no packets are shown the sender has not sent any weather packets the latest 10 day(s).
| Time | Temp. | Humidity | Pressure | Rain* | Wind** | Luminosity | Snow |
|---|---|---|---|---|---|---|---|
| 1787425523 | 27.22° C | 61% | 1015 hPa | 1.52 mm | - | - | - |
| 1787425214 | 26.67° C | 61% | 1015.2 hPa | 1.52 mm | - | - | - |
| 1787424922 | 26.67° C | 61% | 1015.2 hPa | 0.76 mm | - | - | - |
| 1787424619 | 26.67° C | 60% | 1015.3 hPa | 0.76 mm | - | - | - |
| 1787424327 | 26.67° C | 61% | 1015.3 hPa | 0 mm | - | - | - |
| 1787424024 | 26.67° C | 62% | 1015.3 hPa | 0 mm | - | - | - |
| 1787423742 | 26.67° C | 61% | 1015.3 hPa | 0 mm | - | - | - |
| 1787423430 | 26.67° C | 62% | 1015.3 hPa | 0 mm | - | - | - |
| 1787423118 | 26.11° C | 62% | 1015.3 hPa | 0 mm | - | - | - |
| 1787422814 | 26.67° C | 60% | 1015.5 hPa | 0 mm | - | - | - |
| 1787422523 | 26.67° C | 63% | 1015.3 hPa | 0 mm | - | - | - |
| 1787422221 | 26.11° C | 63% | 1015.3 hPa | 0 mm | - | - | - |
| 1787421938 | 26.11° C | 64% | 1015.4 hPa | 0 mm | - | - | - |
| 1787421618 | 26.11° C | 63% | 1015.4 hPa | 0 mm | - | - | - |
| 1787421335 | 26.11° C | 66% | 1015.3 hPa | 0 mm | - | - | - |
| 1787421024 | 26.11° C | 68% | 1015.3 hPa | 0 mm | - | - | - |
| 1787420721 | 26.11° C | 69% | 1015.2 hPa | 0 mm | - | - | - |
| 1787420429 | 25.56° C | 71% | 1015.3 hPa | 0 mm | - | - | - |
| 1787420126 | 25.56° C | 72% | 1015.2 hPa | 0 mm | - | - | - |
| 1787419814 | 25.56° C | 73% | 1015.1 hPa | 0 mm | - | - | - |
| 1787419531 | 25.56° C | 73% | 1015.1 hPa | 0 mm | - | - | - |
| 1787419218 | 25° C | 74% | 1015.1 hPa | 0 mm | - | - | - |
| 1787418917 | 25° C | 75% | 1015.2 hPa | 0 mm | - | - | - |
| 1787418624 | 25° C | 74% | 1015.2 hPa | 0 mm | - | - | - |
| 1787418320 | 25° C | 76% | 1015.3 hPa | 0 mm | - | - | - |
* Rain latest hour (hover to see other rain measurements)
** Current wind speed in m/s (hover to see current wind gust speed)